[[{"header":{"parameterUnit":"m.s-1","parameterCategory":1,"la1":30.2991,"la2":30.254,"lo1":-89.0895,"lo2":-89.0444,"dy":0.0017,"dx":0.0017,"nx":28,"ny":28,"refTime":"2025-05-15T09:00:00:Z","depth":0,"parameterNumber":2,"parameterNumberName":"U-component_of_WINDS"},"data":[0,0,0,0,0,0,0,0,0,0,0,0,0,0,0,0,0,0,0,0,0,0,0,0,0,0,0,0,0,0,0,0,0,0,0,0,0,0,0,0,0,0,0,0,0,0,0,0,0,0,0,0,0,0,0,0,0,0,-0.6255,-0.6255,0,-0.6228,-0.6228,-0.6228,-0.6233,-0.6234,-0.6234,-0.6235,-0.6206,-0.6205,-0.6203,0,0,0,0,0,0,0,0,0,0,0,0,0,-0.6311,-0.631,-0.6255,-0.6255,-0.6254,-0.6228,-0.6228,-0.6228,-0.6233,-0.6234,-0.6234,-0.6235,-0.6206,-0.6205,-0.6203,0,0,0,0,0,0,0,0,0,0,0,0,0,-0.6286,-0.6309,-0.6255,-0.6254,-0.6254,-0.6228,-0.6228,-0.6228,-0.6233,-0.6234,-0.6235,-0.6235,-0.6207,-0.6205,-0.6203,-0.6177,0,0,-0.6197,-0.6197,0,0,0,0,0,0,0,0,-0.6287,-0.6284,-0.6255,-0.6254,-0.6254,-0.6235,-0.6237,-0.621,-0.6233,-0.6241,-0.6235,-0.6236,-0.6215,-0.6212,-0.6206,-0.6175,-0.6174,-0.6197,-0.6196,-0.6195,-0.6195,0,0,0,0,0,0,0,-0.6289,-0.6285,-0.6245,-0.6254,-0.6254,-0.6255,-0.6252,-0.6232,-0.6224,-0.624,-0.6241,-0.6237,-0.6215,-0.6207,-0.6205,-0.6174,-0.6197,-0.6196,-0.6194,-0.6194,-0.6121,-0.612,0,0,0,0,0,0,-0.6291,-0.6286,-0.6245,-0.6244,-0.6273,-0.6253,-0.625,-0.624,-0.6224,-0.6222,-0.6237,-0.6238,-0.621,-0.6207,-0.6204,-0.6172,-0.6195,-0.6194,-0.6192,-0.6122,-0.6121,-0.612,0,0,0,0,0,0,-0.6292,-0.6287,-0.6246,-0.6265,-0.626,-0.6252,-0.624,-0.6239,-0.6232,-0.6222,-0.622,-0.6231,-0.6211,-0.6207,-0.6184,-0.6171,-0.6193,-0.6191,-0.6123,-0.6122,-0.612,-0.6108,0,0,0,0,0,0,-0.6294,-0.6288,-0.6278,-0.6265,-0.6259,-0.6227,-0.624,-0.6238,-0.6229,-0.623,-0.6216,-0.6214,-0.6211,-0.6186,-0.6182,-0.6169,-0.619,-0.6124,-0.6122,-0.6121,-0.611,-0.6107,-0.6104,0,0,0,0,0,-0.6296,-0.6275,-0.6277,-0.6272,-0.6246,-0.6226,-0.6223,-0.622,-0.6228,-0.6218,-0.6211,-0.6214,-0.6174,-0.6184,-0.6179,-0.6165,-0.6125,-0.6123,-0.6121,-0.6111,-0.6107,-0.6104,0,0,0,0,0,0,-0.6285,-0.6273,-0.6275,-0.625,-0.6239,-0.6227,-0.6214,-0.6216,-0.6202,-0.6204,-0.6201,-0.6198,-0.6174,-0.6168,-0.6179,-0.6139,-0.615,-0.6147,-0.6144,-0.6141,-0.6138,-0.614,-0.6188,0,0,0,0,0,-0.628,-0.6265,-0.6255,-0.6233,-0.6228,-0.6222,-0.6213,-0.6212,-0.6201,-0.6196,-0.6188,-0.6176,-0.6161,-0.6151,-0.6136,-0.6109,-0.6106,-0.6097,-0.6095,-0.6093,-0.609,-0.6075,-0.6071,-0.6114,-0.6114,-0.6114,0,0,-0.6269,-0.6261,-0.6251,-0.6231,-0.6223,-0.6207,-0.6218,-0.6201,-0.6189,-0.6193,-0.6171,-0.6165,-0.6152,-0.6127,-0.6116,-0.6121,-0.6078,-0.609,-0.6088,-0.6087,-0.6073,-0.6069,-0.6065,-0.6113,-0.6113,-0.6113,0,0,-0.6241,-0.6233,-0.6214,-0.6206,-0.6193,-0.619,-0.6185,-0.6173,-0.6169,-0.6147,-0.615,-0.6137,-0.611,-0.6101,-0.6093,-0.6063,-0.6065,-0.6058,-0.6043,-0.6029,-0.6026,-0.6023,-0.6012,-0.6008,-0.6055,-0.6055,-0.6055,0,-0.6228,-0.6205,-0.6204,-0.6187,-0.6178,-0.6182,-0.6163,-0.6155,-0.6138,-0.6132,-0.6138,-0.6106,-0.6097,-0.607,-0.6063,-0.6057,-0.6051,-0.6059,-0.6027,-0.6023,-0.6021,-0.601,-0.6006,-0.6055,-0.6055,-0.6055,-0.6055,0,-0.619,-0.6174,-0.616,-0.6145,-0.6135,-0.6116,-0.6113,-0.6103,-0.6103,-0.6099,-0.6077,-0.6067,-0.6051,-0.6045,-0.6045,-0.6018,-0.6022,-0.6027,-0.6038,-0.6016,-0.6006,-0.6002,-0.6053,-0.6054,-0.6054,-0.6054,0,0,-0.6153,-0.6138,-0.6133,-0.6126,-0.6113,-0.6101,-0.6083,-0.6068,-0.6059,-0.6048,-0.6033,-0.6011,-0.6017,-0.6008,-0.6007,-0.5995,-0.5972,-0.6002,-0.6002,-0.5996,-0.5942,-0.5937,-0.5932,-0.5974,-0.5973,-0.5973,-0.5943,0,-0.6123,-0.6092,-0.6091,-0.6063,-0.6048,-0.6053,-0.6038,-0.6028,-0.6024,-0.6011,-0.6007,-0.5991,-0.6,-0.5994,-0.5983,-0.5977,-0.5961,-0.5979,-0.5959,-0.5959,-0.5961,-0.5927,-0.5922,-0.5894,-0.5939,-0.5938,-0.5938,0,-0.6083,-0.6071,-0.6042,-0.6032,-0.6026,-0.6012,-0.5998,-0.5986,-0.5976,-0.5974,-0.5964,-0.5965,-0.5948,-0.596,-0.5935,-0.5948,-0.594,-0.5936,-0.5935,-0.5932,-0.5946,-0.5923,-0.5885,-0.5881,-0.5932,-0.5932,-0.5933,0,-0.6059,-0.6035,-0.6015,-0.6009,-0.5997,-0.5987,-0.5982,-0.5972,-0.5963,-0.5952,-0.5946,-0.5932,-0.5924,-0.5914,-0.5911,-0.5921,-0.5887,-0.5899,-0.5884,-0.5884,-0.5875,-0.5876,-0.5835,-0.5872,-0.5872,-0.5872,-0.5872,0,-0.6025,-0.6006,-0.6003,-0.5991,-0.597,-0.597,-0.595,-0.5945,-0.5937,-0.5923,-0.5927,-0.5914,-0.5912,-0.5899,-0.5897,-0.5877,-0.5874,-0.5871,-0.5871,-0.587,-0.5871,-0.5864,-0.5866,-0.5871,-0.5871,-0.5871,-0.5872,0,-0.5993,-0.599,-0.5968,-0.5959,-0.5957,-0.5942,-0.5934,-0.5922,-0.5919,-0.5902,-0.5898,-0.5893,-0.5878,-0.5875,-0.5857,-0.5855,-0.5831,-0.5833,-0.5835,-0.5835,-0.582,-0.5821,-0.5773,-0.5767,-0.5808,-0.5808,-0.5808,0,-0.5971,-0.5957,-0.5947,-0.5938,-0.5932,-0.5918,-0.591,-0.591,-0.59,-0.5888,-0.5877,-0.5863,-0.5851,-0.5826,-0.5821,-0.5807,-0.5808,-0.5793,-0.5806,-0.5806,-0.5807,-0.5808,-0.5806,-0.5789,-0.5789,-0.5789,-0.5788,0,-0.5932,-0.5932,-0.5919,-0.5906,-0.5896,-0.5886,-0.5876,-0.5869,-0.5868,-0.5857,-0.5842,-0.5833,-0.5815,-0.58,-0.5787,-0.5781,-0.5784,-0.5784,-0.578,-0.5779,-0.578,-0.5779,-0.5827,-0.5785,-0.5785,-0.5786,-0.5786,-0.5786,-0.5904,-0.5892,-0.5883,-0.5869,-0.5862,-0.5854,-0.5842,-0.5838,-0.5825,-0.5811,-0.5812,-0.5795,-0.5786,-0.5768,-0.5762,-0.5749,-0.5754,-0.5748,-0.5746,-0.5744,-0.5743,-0.5783,-0.5746,-0.5747,-0.5747,-0.5747,-0.5747,0,-0.5865,-0.586,-0.5847,-0.5834,-0.5823,-0.5828,-0.5818,-0.5809,-0.5794,-0.5786,-0.5774,-0.5757,-0.5743,-0.5738,-0.5724,-0.5715,-0.5716,-0.5711,-0.5711,-0.571,-0.5739,-0.5744,-0.571,-0.571,-0.571,-0.571,-0.571,-0.571,-0.5843,-0.5823,-0.5822,-0.5799,-0.5794,-0.5778,-0.5772,-0.5764,-0.5757,-0.5738,-0.5727,-0.5723,-0.5716,-0.5702,-0.569,-0.5688,-0.5683,-0.5677,-0.5676,-0.5704,-0.5708,-0.5711,-0.5715,-0.5676,-0.5676,-0.5648,-0.5648,-0.5647]},{"header":{"parameterUnit":"m.s-1","parameterCategory":1,"la1":30.2991,"la2":30.254,"lo1":-89.0895,"lo2":-89.0444,"dy":0.0017,"dx":0.0017,"nx":28,"ny":28,"refTime":"2025-05-15T09:00:00:Z","depth":0,"parameterNumber":3,"parameterNumberName":"V-component_of_WINDS"},"data":[0,0,0,0,0,0,0,0,0,0,0,0,0,0,0,0,0,0,0,0,0,0,0,0,0,0,0,0,0,0,0,0,0,0,0,0,0,0,0,0,0,0,0,0,0,0,0,0,0,0,0,0,0,0,0,0,0,0,5.6738,5.6739,0,5.6812,5.6813,5.6813,5.6769,5.6767,5.6765,5.6763,5.6832,5.6836,5.684,0,0,0,0,0,0,0,0,0,0,0,0,0,5.6554,5.6557,5.6738,5.6739,5.674,5.6812,5.6813,5.6814,5.677,5.6767,5.6765,5.6762,5.6831,5.6835,5.684,0,0,0,0,0,0,0,0,0,0,0,0,0,5.6631,5.6559,5.6738,5.6727,5.6726,5.6811,5.6813,5.6814,5.677,5.6767,5.6764,5.6761,5.6829,5.6835,5.6841,5.6938,0,0,5.6858,5.686,0,0,0,0,0,0,0,0,5.6627,5.6638,5.6727,5.6728,5.6727,5.6778,5.6773,5.6855,5.6771,5.6753,5.6763,5.6759,5.6816,5.6823,5.6843,5.6942,5.6945,5.6858,5.6862,5.6864,5.6866,0,0,0,0,0,0,0,5.6622,5.6635,5.6767,5.6729,5.6729,5.6716,5.6724,5.6788,5.6801,5.6755,5.6752,5.6761,5.6816,5.6838,5.6845,5.6946,5.6858,5.6863,5.6867,5.6869,5.713,5.7133,0,0,0,0,0,0,5.6618,5.663,5.6764,5.6769,5.6669,5.6722,5.6731,5.6765,5.6801,5.6803,5.6764,5.6759,5.683,5.6838,5.6847,5.6966,5.6864,5.687,5.6873,5.7127,5.7131,5.7135,0,0,0,0,0,0,5.6614,5.663,5.6761,5.6699,5.6715,5.6729,5.6768,5.6768,5.679,5.6808,5.6809,5.6785,5.6828,5.6839,5.6917,5.6967,5.6872,5.6877,5.7122,5.7128,5.7133,5.7203,0,0,0,0,0,0,5.6609,5.6629,5.6667,5.67,5.6718,5.6832,5.6771,5.6772,5.6801,5.6795,5.6828,5.683,5.6826,5.6909,5.6923,5.6973,5.6882,5.7118,5.7125,5.7131,5.7196,5.721,5.7222,0,0,0,0,0,5.6603,5.6682,5.667,5.6686,5.6767,5.6835,5.6845,5.6841,5.6805,5.6844,5.6855,5.6829,5.696,5.6917,5.6932,5.6986,5.7115,5.7123,5.7131,5.719,5.7207,5.7221,0,0,0,0,0,0,5.6652,5.6686,5.6673,5.6766,5.6798,5.6827,5.6875,5.6859,5.69,5.6892,5.6884,5.6891,5.6973,5.6987,5.6939,5.7083,5.7031,5.7043,5.7071,5.7088,5.71,5.7095,5.6886,0,0,0,0,0,5.6674,5.6728,5.6754,5.6834,5.6851,5.6861,5.689,5.6885,5.6917,5.693,5.6947,5.6977,5.7025,5.7057,5.7102,5.7198,5.7204,5.7242,5.7255,5.7265,5.7275,5.7328,5.7345,5.7161,5.7161,5.716,0,0,5.6719,5.6745,5.6779,5.6845,5.6869,5.6925,5.6872,5.6932,5.6973,5.6938,5.7014,5.7028,5.7061,5.7149,5.7189,5.7163,5.7328,5.7275,5.7283,5.7288,5.7338,5.7356,5.7371,5.7166,5.7165,5.7164,0,0,5.683,5.6855,5.6925,5.6952,5.6991,5.6997,5.7014,5.7047,5.7056,5.7133,5.7108,5.7155,5.7238,5.7264,5.7288,5.7412,5.739,5.7427,5.7493,5.7545,5.756,5.7573,5.7618,5.7634,5.7436,5.7436,5.7437,0,5.6881,5.6966,5.6963,5.7026,5.7056,5.703,5.7101,5.7126,5.7176,5.7197,5.7168,5.7274,5.7294,5.7389,5.742,5.7439,5.7458,5.7423,5.7558,5.7571,5.7583,5.7626,5.7643,5.7441,5.744,5.744,5.7439,0,5.7027,5.7086,5.7137,5.7191,5.7226,5.7293,5.7299,5.7335,5.7327,5.7336,5.7415,5.7439,5.749,5.7512,5.7503,5.7606,5.7589,5.756,5.7507,5.7605,5.7646,5.7662,5.7447,5.7445,5.7444,5.7443,0,0,5.7169,5.7223,5.7242,5.7267,5.731,5.7354,5.7419,5.7472,5.7504,5.754,5.7594,5.7666,5.7641,5.7668,5.7662,5.7707,5.7806,5.7672,5.7673,5.7697,5.7922,5.7945,5.7964,5.7792,5.7795,5.7798,5.792,0,5.7284,5.7401,5.7402,5.7509,5.7564,5.7542,5.7599,5.763,5.7641,5.7688,5.7698,5.7751,5.7712,5.7728,5.7773,5.7785,5.7851,5.7776,5.7842,5.7844,5.7835,5.7985,5.8008,5.8123,5.7935,5.7938,5.794,0,5.7433,5.7478,5.7593,5.763,5.7653,5.7704,5.7754,5.7799,5.7834,5.7839,5.7871,5.7859,5.7925,5.7871,5.7962,5.7911,5.7938,5.7948,5.7952,5.7958,5.7898,5.7996,5.8159,5.8176,5.7965,5.7963,5.7961,0,5.7527,5.7616,5.7697,5.7719,5.7763,5.7801,5.7821,5.7853,5.7886,5.7928,5.7949,5.7997,5.8024,5.8061,5.8062,5.8022,5.8154,5.81,5.8159,5.8159,5.8187,5.8186,5.8358,5.8204,5.8204,5.8203,5.8203,0,5.7656,5.7727,5.774,5.779,5.7869,5.7868,5.7946,5.7962,5.7992,5.8043,5.8025,5.8073,5.8072,5.8121,5.8121,5.8197,5.8208,5.8214,5.8213,5.8216,5.8215,5.8233,5.8226,5.8208,5.8207,5.8206,5.8205,0,5.7774,5.7786,5.7873,5.791,5.792,5.7977,5.8008,5.8054,5.8065,5.813,5.8145,5.816,5.8217,5.8222,5.8286,5.8287,5.8379,5.837,5.8369,5.8367,5.8427,5.8421,5.8617,5.8643,5.8471,5.8473,5.8474,0,5.7856,5.791,5.7954,5.7989,5.8013,5.8068,5.8102,5.8104,5.814,5.8186,5.8227,5.8283,5.8328,5.8419,5.8435,5.8485,5.8476,5.8542,5.8483,5.8485,5.8479,5.8476,5.8482,5.8553,5.8555,5.8556,5.8557,0,5.7999,5.8004,5.8055,5.8109,5.8151,5.8193,5.8232,5.8261,5.8267,5.8308,5.8368,5.8403,5.8472,5.8527,5.8577,5.8595,5.8578,5.8576,5.8592,5.8596,5.8594,5.8597,5.84,5.8571,5.857,5.8569,5.8568,5.8567,5.8102,5.8151,5.8191,5.8249,5.828,5.8317,5.8364,5.8382,5.8432,5.849,5.8488,5.8554,5.8589,5.8654,5.8677,5.8728,5.8705,5.8729,5.8735,5.8741,5.8748,5.8586,5.8736,5.8736,5.8735,5.8735,5.8735,0,5.8247,5.8272,5.8326,5.8383,5.8429,5.8412,5.8455,5.8494,5.8553,5.8589,5.8635,5.8704,5.8758,5.8779,5.8832,5.8869,5.8863,5.8883,5.888,5.8885,5.8764,5.8745,5.8888,5.8888,5.8888,5.8888,5.8887,5.8887,5.8327,5.8409,5.8419,5.8516,5.8539,5.8607,5.8633,5.8668,5.8697,5.8776,5.8823,5.8837,5.8867,5.8923,5.8972,5.8976,5.8997,5.9021,5.9023,5.8909,5.8893,5.8879,5.8861,5.9025,5.9026,5.914,5.9141,5.9141]}]]